Location: North Evanston
(42.0634°N, 87.6976°W)
Time: 20:54:33
(UTC+00:00)

Transit 2A - Pass Details

Date: 17 May 2026
Orbit: 595 x 948 km, 66.7° (Epoch: 9 June)

Event Time Altitude Azimuth Distance (km) Brightness Sun altitude
Rises 04:27:02 0° 339° (NNW) 3,216 10.6 -25.9°
Reaches altitude 10° 04:30:21 10° 359° (N) 2,211 9.3 -26.1°
Maximum altitude 04:33:34 17° 40° (NE) 1,713 8.1 -26.3°
Enters shadow 04:35:33 14° 69° (ENE) 1,857 8.0 -26.4°
Drops below altitude 10° 04:36:38 10° 81° (E) 2,071 - -26.5°
Sets 04:39:35 0° 102° (ESE) 2,924 - -26.6°
